This demonstration page uses our WeatherBlox Daily Observations layout. Learn more.

Left ArrowRight Arrow

Hourly Observations for February 5, 2020

Temp ( °F °C ) Dew Point ( °F °C ) Humidity (%) Winds ( mph kmh ) Pressure ( in mb ) Visibility ( mi km ) Precip ( " mm )
12:56 am 00:56 Cloudy 21 -6.1 13 -10.6 71 71 N 10 17 30.24 1024 10 16 0.00 0.00
1:56 am 01:56 Cloudy 20 -6.7 11 -11.7 68 68 N 10 17 30.22 1023 10 16 0.00 0.00
2:56 am 02:56 Mostly Cloudy 19 -7.2 12 -11.1 74 74 N 7 11 30.21 1023 10 16 0.00 0.00
3:56 am 03:56 Cloudy with Light Snow 20 -6.7 12 -11.1 71 71 NNE 8 13 30.19 1022 9 14 0.00 0.00
4:56 am 04:56 Cloudy 19 -7.2 13 -10.6 77 77 NNE 7 11 30.19 1022 10 16 0.00 0.00
5:56 am 05:56 Cloudy with Light Snow 19 -7.2 14 -10 81 81 NNE 7 11 30.17 1022 10 16 0.00 0.00
6:56 am 06:56 Mostly Cloudy 15 -9.4 11 -11.7 84 84 NNE 5 7 30.17 1022 10 16 0.00 0.00
7:56 am 07:56 Partly Cloudy 14 -10 12 -11.1 92 92 NE 5 7 30.16 1022 10 16 0.00 0.00
8:56 am 08:56 Sunny 19 -7.2 15 -9.4 84 84 NE 5 7 30.16 1021 10 16 0.00 0.00
9:56 am 09:56 Sunny 24 -4.4 16 -8.9 71 71 VRB 5 7 30.13 1020 10 16 0.00 0.00
10:56 am 10:56 Sunny 29 -1.7 16 -8.9 58 58 Calm 30.12 1020 10 16 0.00 0.00
11:56 am 11:56 Sunny 34 1.1 15 -9.4 46 46 Calm 30.08 1019 10 16 0.00 0.00
12:56 pm 12:56 Mostly Sunny 33 0.6 14 -10 45 45 VRB 5 7 30.03 1017 10 16 0.00 0.00
1:56 pm 13:56 Partly Cloudy 31 -0.6 15 -9.4 52 52 WSW 5 7 29.99 1016 10 16 0.00 0.00
2:56 pm 14:56 Mostly Cloudy 31 -0.6 15 -9.4 52 52 SW 10 17 29.95 1014 10 16 0.00 0.00
3:56 pm 15:56 Mostly Cloudy 30 -1.1 15 -9.4 54 54 WSW 10 17 29.94 1014 10 16 0.00 0.00
4:56 pm 16:56 Mostly Cloudy 30 -1.1 15 -9.4 54 54 W 10 17 29.92 1013 10 16 0.00 0.00
5:56 pm 17:56 Sunny 29 -1.7 16 -8.9 58 58 W 9 15 29.91 1013 10 16 0.00 0.00
6:56 pm 18:56 Clear 26 -3.3 15 -9.4 63 63 SW 5 7 29.92 1013 10 16 0.00 0.00
7:56 pm 19:56 Clear 22 -5.6 16 -8.9 78 78 SSW 7 11 29.93 1014 10 16 0.00 0.00
8:56 pm 20:56 Clear 21 -6.1 15 -9.4 78 78 SSW 7 11 29.91 1013 10 16 0.00 0.00
9:56 pm 21:56 Clear 22 -5.6 15 -9.4 75 75 SSW 8 13 29.89 1012 10 16 0.00 0.00
10:56 pm 22:56 Clear 20 -6.7 14 -10 78 78 SSW 8 13 29.86 1011 10 16 0.00 0.00
11:56 pm 23:56 Clear 18 -7.8 13 -10.6 81 81 SSW 8 13 29.84 1011 10 16 0.00 0.00

Powered by AerisWeather